• In Uzbekistan
  • List of Countries
  • For 7 days
  • Water Temperature
  • Satellite Maps
  • Weather Map
  • Weather Widgets
  • user-avatar
    Login

    Hourly Weather Darwin

    Today, 25 May, Thursday

    Time Temperature Precipitation Wind Pressure Humidity
    00:00 +27°C° 0 mm 4 mps 759 mmHg 57%
    01:00 +27°C° 0 mm 4 mps 759 mmHg 60%
    02:00 +26°C° 0 mm 5 mps 758 mmHg 64%
    03:00 +26°C° 0 mm 5 mps 758 mmHg 67%
    04:00 +26°C° 0 mm 5 mps 758 mmHg 71%
    05:00 +25°C° 0 mm 5 mps 759 mmHg 75%
    06:00 +25°C° 0 mm 5 mps 759 mmHg 78%
    07:00 +26°C° 0 mm 6 mps 759 mmHg 74%
    08:00 +28°C° 0 mm 6 mps 759 mmHg 69%
    09:00 +29°C° 0 mm 7 mps 759 mmHg 65%
    10:00 +32°C° 0 mm 6 mps 759 mmHg 58%
    11:00 +33°C° 0 mm 6 mps 759 mmHg 52%
    12:00 +35°C° 0 mm 6 mps 758 mmHg 46%
    13:00 +35°C° 0 mm 5 mps 758 mmHg 45%
    14:00 +36°C° 0 mm 5 mps 757 mmHg 44%
    15:00 +36°C° 0 mm 4 mps 757 mmHg 42%
    16:00 +35°C° 0 mm 4 mps 757 mmHg 49%
    17:00 +33°C° 0 mm 3 mps 757 mmHg 55%
    18:00 +30°C° 0 mm 3 mps 757 mmHg 61%
    19:00 +30°C° 0 mm 3 mps 758 mmHg 62%
    20:00 +30°C° 0 mm 3 mps 758 mmHg 63%
    21:00 +30°C° 0 mm 2 mps 758 mmHg 64%
    22:00 +29°C° 0 mm 3 mps 759 mmHg 63%
    23:00 +29°C° 0 mm 3 mps 759 mmHg 63%

    Tomorrow, 26 May, Friday

    Time Temperature Precipitation Wind Pressure Humidity
    00:00 +29°C° 0 mm 4 mps 759 mmHg 62%
    01:00 +29°C° 0.1 mm 5 mps 759 mmHg 64%
    02:00 +28°C° 0.1 mm 5 mps 759 mmHg 66%
    03:00 +27°C° 0.1 mm 6 mps 758 mmHg 68%
    04:00 +27°C° 0 mm 6 mps 759 mmHg 69%
    05:00 +27°C° 0 mm 6 mps 759 mmHg 69%
    06:00 +26°C° 0 mm 6 mps 759 mmHg 70%
    07:00 +27°C° 0 mm 7 mps 759 mmHg 62%
    08:00 +28°C° 0 mm 7 mps 759 mmHg 54%
    09:00 +29°C° 0 mm 8 mps 760 mmHg 46%
    10:00 +31°C° 0 mm 8 mps 759 mmHg 43%
    11:00 +33°C° 0 mm 7 mps 759 mmHg 39%
    12:00 +34°C° 0 mm 7 mps 759 mmHg 36%
    13:00 +34°C° 0 mm 6 mps 758 mmHg 36%
    14:00 +35°C° 0 mm 6 mps 757 mmHg 37%
    15:00 +35°C° 0 mm 5 mps 757 mmHg 38%
    16:00 +34°C° 0 mm 5 mps 757 mmHg 44%
    17:00 +32°C° 0 mm 4 mps 757 mmHg 51%
    18:00 +29°C° 0 mm 4 mps 757 mmHg 57%
    19:00 +29°C° 0 mm 4 mps 758 mmHg 58%
    20:00 +28°C° 0 mm 4 mps 758 mmHg 60%
    21:00 +28°C° 0 mm 3 mps 759 mmHg 61%
    22:00 +28°C° 0 mm 4 mps 759 mmHg 62%
    23:00 +28°C° 0 mm 5 mps 759 mmHg 62%

    Day after tomorrow, 27 May, Saturday

    Time Temperature Precipitation Wind Pressure Humidity
    00:00 +28°C° 0 mm 5 mps 759 mmHg 63%
    01:00 +27°C° 0 mm 6 mps 759 mmHg 66%
    02:00 +27°C° 0 mm 6 mps 758 mmHg 69%
    03:00 +26°C° 0 mm 6 mps 758 mmHg 71%
    04:00 +26°C° 0 mm 6 mps 758 mmHg 71%
    05:00 +24°C° 0 mm 6 mps 759 mmHg 71%
    06:00 +24°C° 0 mm 6 mps 759 mmHg 71%
    07:00 +26°C° 0 mm 7 mps 759 mmHg 64%
    08:00 +27°C° 0 mm 7 mps 760 mmHg 56%
    09:00 +28°C° 0 mm 8 mps 760 mmHg 49%
    10:00 +30°C° 0 mm 7 mps 760 mmHg 45%
    11:00 +33°C° 0 mm 7 mps 759 mmHg 41%
    12:00 +34°C° 0 mm 7 mps 759 mmHg 36%
    13:00 +34°C° 0 mm 6 mps 758 mmHg 37%
    14:00 +35°C° 0 mm 6 mps 758 mmHg 37%
    15:00 +35°C° 0 mm 5 mps 757 mmHg 37%
    16:00 +34°C° 0 mm 5 mps 757 mmHg 43%
    17:00 +32°C° 0 mm 4 mps 757 mmHg 49%
    18:00 +29°C° 0 mm 3 mps 758 mmHg 54%
    19:00 +29°C° 0 mm 3 mps 758 mmHg 54%
    20:00 +29°C° 0 mm 3 mps 759 mmHg 54%
    21:00 +29°C° 0 mm 3 mps 759 mmHg 54%
    22:00 +28°C° 0 mm 4 mps 759 mmHg 55%
    23:00 +28°C° 0 mm 5 mps 759 mmHg 56%

    28 May, Sunday

    Time Temperature Precipitation Wind Pressure Humidity
    00:00 +27°C° 0 mm 6 mps 759 mmHg 57%
    01:00 +27°C° 0 mm 6 mps 759 mmHg 59%
    02:00 +26°C° 0 mm 6 mps 758 mmHg 62%
    03:00 +26°C° 0 mm 6 mps 758 mmHg 65%
    04:00 +24°C° 0 mm 6 mps 758 mmHg 67%
    05:00 +24°C° 0 mm 6 mps 759 mmHg 68%
    06:00 +24°C° 0 mm 6 mps 759 mmHg 70%
    07:00 +26°C° 0 mm 6 mps 759 mmHg 66%
    08:00 +27°C° 0 mm 6 mps 760 mmHg 62%
    09:00 +29°C° 0 mm 7 mps 760 mmHg 59%
    10:00 +30°C° 0 mm 6 mps 760 mmHg 53%
    11:00 +33°C° 0 mm 6 mps 760 mmHg 48%
    12:00 +35°C° 0 mm 6 mps 759 mmHg 43%
    13:00 +35°C° 0 mm 6 mps 758 mmHg 42%
    14:00 +35°C° 0 mm 5 mps 758 mmHg 41%
    15:00 +36°C° 0 mm 5 mps 757 mmHg 40%
    16:00 +34°C° 0 mm 4 mps 757 mmHg 44%
    17:00 +33°C° 0 mm 3 mps 758 mmHg 47%
    18:00 +31°C° 0 mm 3 mps 758 mmHg 51%
    19:00 +31°C° 0 mm 3 mps 759 mmHg 51%
    20:00 +30°C° 0 mm 4 mps 759 mmHg 50%
    21:00 +30°C° 0 mm 4 mps 760 mmHg 49%
    22:00 +29°C° 0 mm 5 mps 759 mmHg 51%
    23:00 +29°C° 0 mm 6 mps 759 mmHg 53%

    29 May, Monday

    Time Temperature Precipitation Wind Pressure Humidity
    00:00 +28°C° 0 mm 7 mps 759 mmHg 55%
    01:00 +27°C° 0 mm 7 mps 759 mmHg 55%
    02:00 +27°C° 0 mm 7 mps 759 mmHg 55%
    03:00 +26°C° 0 mm 7 mps 759 mmHg 55%
    04:00 +26°C° 0 mm 7 mps 759 mmHg 55%
    05:00 +26°C° 0 mm 7 mps 759 mmHg 56%
    06:00 +26°C° 0 mm 7 mps 759 mmHg 56%
    07:00 +27°C° 0 mm 8 mps 760 mmHg 53%
    08:00 +28°C° 0 mm 8 mps 760 mmHg 49%
    09:00 +29°C° 0 mm 9 mps 760 mmHg 46%
    10:00 +32°C° 0 mm 9 mps 760 mmHg 41%
    11:00 +33°C° 0 mm 8 mps 759 mmHg 37%
    12:00 +34°C° 0 mm 8 mps 759 mmHg 33%
    13:00 +35°C° 0 mm 7 mps 758 mmHg 32%
    14:00 +35°C° 0 mm 7 mps 758 mmHg 31%
    15:00 +35°C° 0 mm 6 mps 757 mmHg 30%
    16:00 +34°C° 0 mm 6 mps 758 mmHg 33%
    17:00 +32°C° 0 mm 5 mps 758 mmHg 37%
    18:00 +29°C° 0 mm 4 mps 758 mmHg 40%
    19:00 +29°C° 0 mm 5 mps 759 mmHg 39%
    20:00 +28°C° 0 mm 6 mps 759 mmHg 38%
    21:00 +27°C° 0 mm 7 mps 760 mmHg 37%
    22:00 +26°C° 0 mm 7 mps 760 mmHg 39%
    23:00 +26°C° 0 mm 7 mps 760 mmHg 42%

    30 May, Tuesday

    Time Temperature Precipitation Wind Pressure Humidity
    00:00 +24°C° 0 mm 7 mps 760 mmHg 44%
    01:00 +24°C° 0 mm 7 mps 760 mmHg 47%
    02:00 +23°C° 0 mm 7 mps 760 mmHg 49%
    03:00 +22°C° 0 mm 8 mps 759 mmHg 51%
    04:00 +22°C° 0 mm 8 mps 760 mmHg 49%
    05:00 +22°C° 0 mm 8 mps 760 mmHg 47%
    06:00 +22°C° 0 mm 8 mps 760 mmHg 45%
    07:00 +23°C° 0 mm 8 mps 761 mmHg 40%
    08:00 +24°C° 0 mm 8 mps 761 mmHg 35%
    09:00 +26°C° 0 mm 9 mps 761 mmHg 30%
    10:00 +28°C° 0 mm 8 mps 761 mmHg 27%
    11:00 +31°C° 0 mm 8 mps 760 mmHg 25%
    12:00 +32°C° 0 mm 7 mps 760 mmHg 23%
    13:00 +33°C° 0 mm 6 mps 759 mmHg 23%
    14:00 +33°C° 0 mm 6 mps 759 mmHg 23%
    15:00 +34°C° 0 mm 5 mps 758 mmHg 23%
    16:00 +32°C° 0 mm 5 mps 758 mmHg 27%
    17:00 +29°C° 0 mm 5 mps 759 mmHg 30%
    18:00 +28°C° 0 mm 4 mps 759 mmHg 34%
    19:00 +27°C° 0 mm 5 mps 759 mmHg 34%
    20:00 +26°C° 0 mm 5 mps 760 mmHg 35%
    21:00 +24°C° 0 mm 6 mps 760 mmHg 35%
    22:00 +24°C° 0 mm 6 mps 760 mmHg 36%
    23:00 +24°C° 0 mm 6 mps 760 mmHg 36%
    Show more